START_TIME,STEP,MOV.,H8,t_acc.,H43,t_acc.,M25,t_acc.,H9,t_acc.
1986-01-24 00:00:07.030 ,4,0,0.,12.0,0.,12.0,0.,12.0,0.,12.0
1986-01-24 00:00:19.030 ,4,0,0.,12.0,0.,12.0,0.,12.0,0.,12.0
1986-01-24 00:00:31.030 ,4,0,0.,12.0,0.,12.0,0.,12.0,0.,12.0
1986-01-24 00:00:43.030 ,4,0,0.,12.0,0.,12.0,0.,12.0,0.,12.0
1986-01-24 00:00:55.030 ,3,0,0.,12.0,0.,12.0,0.,12.0,0.,12.0
1986-01-24 00:01:07.030 ,3,0,0.,12.0,0.,12.0,0.,12.0,0.,12.0
1986-01-24 00:01:19.030 ,3,0,0.,12.0,0.,12.0,0.,12.0,0.,12.0
1986-01-24 00:01:31.030 ,3,0,0.,12.0,0.,12.0,0.,12.0,0.,12.0
1986-01-24 00:01:43.030 ,2,0,0.,12.0,0.,12.0,0.,12.0,0.,12.0
1986-01-24 00:01:55.030 ,2,0,0.,12.0,0.,12.0,0.,12.0,0.,12.0
1986-01-24 00:02:07.030 ,2,0,0.,12.0,0.,12.0,0.,12.0,0.,12.0
1986-01-24 00:02:19.030 ,2,0,0.,12.0,0.,12.0,0.,12.0,0.,12.0
1986-01-24 00:02:31.030 ,1,0,0.,12.0,0.,12.0,0.,12.0,0.,12.0
1986-01-24 00:02:43.030 ,1,0,0.,12.0,0.,12.0,0.,12.0,0.,12.0
1986-01-24 00:02:55.030 ,1,0,0.,12.0,0.,12.0,0.,12.0,0.,12.0
1986-01-24 00:03:07.030 ,1,0,0.,12.0,0.,12.0,0.,12.0,0.,12.0
1986-01-24 00:03:19.030 ,0,0,0.,12.0,0.,12.0,0.,12.0,0.,12.0
1986-01-24 00:03:31.030 ,0,0,0.,12.0,0.,12.0,0.,12.0,0.,12.0
1986-01-24 00:03:43.030 ,0,0,0.,12.0,0.,12.0,0.,12.0,0.,12.0
1986-01-24 00:03:55.030 ,0,0,0.,12.0,0.,12.0,0.,12.0,0.,12.0
1986-01-24 00:04:07.030 ,0,0,0.,12.0,0.,12.0,0.,12.0,0.,12.0
1986-01-24 00:04:19.030 ,0,0,0.,12.0,0.,12.0,0.,12.0,0.,12.0
1986-01-24 00:04:31.030 ,0,0,0.,12.0,0.,12.0,0.,12.0,0.,12.0
1986-01-24 00:04:43.030 ,0,0,0.,12.0,0.,12.0,0.,12.0,0.,12.0
1986-01-24 00:04:55.030 ,1,0,0.,12.0,0.,12.0,0.,12.0,0.,12.0
1986-01-24 00:05:07.030 ,1,0,0.,12.0,0.,12.0,0.,12.0,0.,12.0
1986-01-24 00:05:19.030 ,1,0,0.,12.0,0.,12.0,0.,12.0,0.,12.0
1986-01-24 00:05:31.030 ,1,0,0.,12.0,0.,12.0,0.,12.0,0.,12.0
1986-01-24 00:05:43.030 ,2,0,0.,12.0,0.,12.0,0.,12.0,0.,12.0
1986-01-24 00:05:55.030 ,2,0,0.,12.0,0.,12.0,0.,12.0,0.,12.0
1986-01-24 00:06:07.030 ,2,0,0.,12.0,0.,12.0,0.,12.0,0.,12.0
1986-01-24 00:06:19.030 ,2,0,0.,12.0,0.,12.0,0.,12.0,0.,12.0
1986-01-24 00:06:31.030 ,3,0,0.,12.0,0.,12.0,0.,12.0,0.,12.0
1986-01-24 00:06:43.030 ,3,0,0.,12.0,0.,12.0,0.,12.0,0.,12.0
1986-01-24 00:06:55.030 ,3,0,0.,12.0,0.,12.0,0.,12.0,0.,12.0
1986-01-24 00:07:07.030 ,3,0,0.,12.0,0.,12.0,0.,12.0,0.,12.0
1986-01-24 00:07:19.030 ,4,0,0.,12.0,0.,12.0,0.,12.0,0.,12.0
1986-01-24 00:07:31.030 ,4,0,0.,12.0,0.,12.0,0.,12.0,0.,12.0
1986-01-24 00:07:43.030 ,4,0,0.,12.0,0.,12.0,0.,12.0,0.,12.0
1986-01-24 00:07:55.030 ,4,0,0.,12.0,1.,12.0,0.,12.0,0.,12.0
1986-01-24 00:08:07.030 ,5,0,0.,12.0,0.,12.0,0.,12.0,0.,12.0
1986-01-24 00:08:19.030 ,5,0,0.,12.0,0.,12.0,0.,12.0,0.,12.0
1986-01-24 00:08:31.030 ,5,0,0.,12.0,0.,12.0,0.,12.0,0.,12.0
1986-01-24 00:08:43.030 ,5,0,0.,12.0,0.,12.0,0.,12.0,0.,12.0
1986-01-24 00:08:55.030 ,6,0,0.,12.0,0.,12.0,0.,12.0,0.,12.0
1986-01-24 00:09:07.030 ,6,0,0.,12.0,0.,12.0,0.,12.0,0.,12.0
1986-01-24 00:09:19.030 ,6,0,0.,12.0,0.,12.0,0.,12.0,0.,12.0
1986-01-24 00:09:31.030 ,6,0,0.,12.0,0.,12.0,0.,12.0,0.,12.0
1986-01-24 00:09:43.030 ,7,0,0.,12.0,0.,12.0,0.,12.0,0.,12.0
1986-01-24 00:09:55.030 ,7,0,0.,12.0,0.,12.0,0.,12.0,0.,12.0
1986-01-24 00:10:07.030 ,7,0,0.,12.0,0.,12.0,0.,12.0,0.,12.0
1986-01-24 00:10:19.030 ,7,0,0.,12.0,0.,12.0,0.,12.0,0.,12.0
1986-01-24 00:10:31.030 ,7,0,0.,12.0,0.,12.0,0.,12.0,0.,12.0
1986-01-24 00:10:43.030 ,7,0,0.,12.0,0.,12.0,0.,12.0,0.,12.0
1986-01-24 00:10:55.030 ,7,0,0.,12.0,0.,12.0,0.,12.0,0.,12.0
1986-01-24 00:11:07.030 ,7,0,0.,12.0,0.,12.0,0.,12.0,0.,12.0
1986-01-24 00:11:19.030 ,6,0,0.,12.0,0.,12.0,0.,12.0,0.,12.0
1986-01-24 00:11:31.030 ,6,0,0.,12.0,0.,12.0,0.,12.0,0.,12.0
1986-01-24 00:11:43.030 ,6,0,0.,12.0,0.,12.0,0.,12.0,0.,12.0
1986-01-24 00:11:55.030 ,6,0,0.,12.0,0.,12.0,0.,12.0,0.,12.0
1986-01-24 00:12:07.030 ,5,0,0.,12.0,0.,12.0,0.,12.0,0.,12.0
1986-01-24 00:12:19.030 ,5,0,0.,12.0,0.,12.0,0.,12.0,0.,12.0
1986-01-24 00:12:31.030 ,5,0,0.,12.0,0.,12.0,0.,12.0,0.,12.0
1986-01-24 00:12:43.030 ,5,0,0.,12.0,0.,12.0,0.,12.0,0.,12.0
1986-01-24 00:12:55.030 ,4,0,0.,12.0,0.,12.0,0.,12.0,0.,12.0
1986-01-24 00:13:07.030 ,4,0,0.,12.0,0.,12.0,0.,12.0,0.,12.0
1986-01-24 00:13:19.030 ,4,0,0.,12.0,0.,12.0,0.,12.0,0.,12.0
1986-01-24 00:13:31.030 ,4,0,0.,12.0,0.,12.0,0.,12.0,0.,12.0
1986-01-24 00:13:43.030 ,3,0,0.,12.0,0.,12.0,0.,12.0,0.,12.0
1986-01-24 00:13:55.030 ,3,0,0.,12.0,0.,12.0,0.,12.0,0.,12.0
1986-01-24 00:14:07.030 ,3,0,0.,12.0,0.,12.0,0.,12.0,0.,12.0
1986-01-24 00:14:19.030 ,3,0,0.,12.0,0.,12.0,0.,12.0,0.,12.0
1986-01-24 00:14:31.030 ,2,0,0.,12.0,0.,12.0,0.,12.0,0.,12.0
1986-01-24 00:14:43.030 ,2,0,0.,12.0,0.,12.0,0.,12.0,0.,12.0
1986-01-24 00:14:55.030 ,2,0,0.,12.0,0.,12.0,0.,12.0,0.,12.0
1986-01-24 00:15:07.030 ,2,0,0.,12.0,0.,12.0,0.,12.0,0.,12.0
1986-01-24 00:15:19.030 ,1,0,0.,12.0,0.,12.0,0.,12.0,0.,12.0
1986-01-24 00:15:31.030 ,1,0,0.,12.0,0.,12.0,0.,12.0,0.,12.0
1986-01-24 00:15:43.030 ,1,0,0.,12.0,0.,12.0,0.,12.0,0.,12.0
1986-01-24 00:15:55.030 ,1,0,0.,12.0,0.,12.0,0.,12.0,0.,12.0
1986-01-24 00:16:07.030 ,0,0,0.,12.0,0.,12.0,0.,12.0,0.,12.0
1986-01-24 00:16:19.030 ,0,0,0.,12.0,0.,12.0,0.,12.0,0.,12.0
1986-01-24 00:16:31.030 ,0,0,0.,12.0,0.,12.0,0.,12.0,0.,12.0
1986-01-24 00:16:43.030 ,0,0,0.,12.0,0.,12.0,0.,12.0,0.,12.0
1986-01-24 00:16:55.030 ,0,0,0.,12.0,0.,12.0,0.,12.0,0.,12.0
1986-01-24 00:17:07.030 ,0,0,0.,12.0,0.,12.0,0.,12.0,0.,12.0
1986-01-24 00:17:19.030 ,0,0,0.,12.0,0.,12.0,0.,12.0,0.,12.0
1986-01-24 00:17:31.030 ,0,0,0.,12.0,0.,12.0,0.,12.0,0.,12.0
1986-01-24 00:17:43.030 ,1,0,0.,12.0,0.,12.0,0.,12.0,0.,12.0
1986-01-24 00:17:55.030 ,1,0,0.,12.0,0.,12.0,0.,12.0,0.,12.0
1986-01-24 00:18:07.030 ,1,0,0.,12.0,0.,12.0,0.,12.0,0.,12.0
1986-01-24 00:18:19.030 ,1,0,0.,12.0,0.,12.0,0.,12.0,0.,12.0
1986-01-24 00:18:31.030 ,2,0,0.,12.0,0.,12.0,0.,12.0,0.,12.0
1986-01-24 00:18:43.030 ,2,0,0.,12.0,0.,12.0,0.,12.0,0.,12.0
1986-01-24 00:18:55.030 ,2,0,0.,12.0,0.,12.0,0.,12.0,0.,12.0
1986-01-24 00:19:07.030 ,2,0,0.,12.0,0.,12.0,0.,12.0,0.,12.0
1986-01-24 00:19:19.030 ,3,0,0.,12.0,0.,12.0,0.,12.0,0.,12.0
1986-01-24 00:19:31.030 ,3,0,0.,12.0,0.,12.0,0.,12.0,0.,12.0
1986-01-24 00:19:43.030 ,3,0,0.,12.0,0.,12.0,0.,12.0,0.,12.0
1986-01-24 00:19:55.030 ,3,0,0.,12.0,0.,12.0,0.,12.0,0.,12.0
1986-01-24 00:20:07.030 ,4,0,0.,12.0,0.,12.0,0.,12.0,0.,12.0
1986-01-24 00:20:19.030 ,4,0,0.,12.0,0.,12.0,0.,12.0,0.,12.0
1986-01-24 00:20:31.030 ,4,0,0.,12.0,0.,12.0,0.,12.0,0.,12.0
1986-01-24 00:20:43.030 ,4,0,0.,12.0,0.,12.0,0.,12.0,0.,12.0
1986-01-24 00:20:55.030 ,5,0,0.,12.0,0.,12.0,0.,12.0,0.,12.0
1986-01-24 00:21:07.030 ,5,0,0.,12.0,0.,12.0,0.,12.0,0.,12.0
1986-01-24 00:21:19.030 ,5,0,0.,12.0,0.,12.0,0.,12.0,0.,12.0
1986-01-24 00:21:31.030 ,5,0,0.,12.0,0.,12.0,0.,12.0,0.,12.0
1986-01-24 00:21:43.030 ,6,0,0.,12.0,0.,12.0,0.,12.0,0.,12.0
1986-01-24 00:21:55.030 ,6,0,0.,12.0,0.,12.0,0.,12.0,0.,12.0
1986-01-24 00:22:07.030 ,6,0,0.,12.0,0.,12.0,0.,12.0,0.,12.0
1986-01-24 00:22:19.030 ,6,0,0.,12.0,0.,12.0,0.,12.0,0.,12.0
1986-01-24 00:22:31.030 ,7,0,0.,12.0,0.,12.0,0.,12.0,0.,12.0
1986-01-24 00:22:43.030 ,7,0,0.,12.0,0.,12.0,0.,12.0,0.,12.0
1986-01-24 00:22:55.030 ,7,0,0.,12.0,0.,12.0,0.,12.0,0.,12.0
1986-01-24 00:23:07.030 ,7,0,0.,12.0,0.,12.0,0.,12.0,0.,12.0
1986-01-24 00:23:19.030 ,7,0,0.,12.0,0.,12.0,0.,12.0,0.,12.0
1986-01-24 00:23:31.030 ,7,0,0.,12.0,0.,12.0,0.,12.0,0.,12.0
1986-01-24 00:23:43.030 ,7,0,0.,12.0,0.,12.0,0.,12.0,0.,12.0
1986-01-24 00:23:55.030 ,7,0,0.,12.0,0.,12.0,0.,12.0,0.,12.0
1986-01-24 00:24:07.030 ,6,0,0.,12.0,0.,12.0,0.,12.0,0.,12.0
1986-01-24 00:24:19.030 ,6,0,0.,12.0,0.,12.0,0.,12.0,0.,12.0
1986-01-24 00:24:31.030 ,6,0,0.,12.0,0.,12.0,0.,12.0,0.,12.0
1986-01-24 00:24:43.030 ,6,0,0.,12.0,0.,12.0,0.,12.0,0.,12.0
1986-01-24 00:24:55.030 ,5,0,0.,12.0,0.,12.0,0.,12.0,0.,12.0
1986-01-24 00:25:07.030 ,5,0,0.,12.0,0.,12.0,0.,12.0,0.,12.0
1986-01-24 00:25:19.030 ,5,0,0.,12.0,0.,12.0,0.,12.0,0.,12.0
1986-01-24 00:25:31.030 ,5,0,0.,12.0,0.,12.0,0.,12.0,0.,12.0
1986-01-24 00:25:43.030 ,4,0,0.,12.0,0.,12.0,0.,12.0,0.,12.0
1986-01-24 00:25:55.030 ,4,0,0.,12.0,0.,12.0,0.,12.0,0.,12.0
1986-01-24 00:26:07.030 ,4,0,0.,12.0,0.,12.0,0.,12.0,0.,12.0
1986-01-24 00:26:19.030 ,4,0,0.,12.0,0.,12.0,0.,12.0,0.,12.0
1986-01-24 00:26:31.030 ,3,0,0.,12.0,0.,12.0,0.,12.0,0.,12.0
1986-01-24 00:26:43.030 ,3,0,0.,12.0,0.,12.0,0.,12.0,0.,12.0
1986-01-24 00:26:55.030 ,3,0,0.,12.0,0.,12.0,0.,12.0,0.,12.0
1986-01-24 00:27:07.030 ,3,0,0.,12.0,0.,12.0,0.,12.0,0.,12.0
1986-01-24 00:27:19.030 ,2,0,0.,12.0,0.,12.0,0.,12.0,0.,12.0
1986-01-24 00:27:31.030 ,2,0,0.,12.0,0.,12.0,0.,12.0,0.,12.0
1986-01-24 00:27:43.030 ,2,0,0.,12.0,0.,12.0,0.,12.0,0.,12.0
1986-01-24 00:27:55.030 ,2,0,0.,12.0,0.,12.0,0.,12.0,0.,12.0
1986-01-24 00:28:07.030 ,1,0,0.,12.0,1.,12.0,0.,12.0,0.,12.0
1986-01-24 00:28:19.030 ,1,0,0.,12.0,0.,12.0,0.,12.0,0.,12.0
1986-01-24 00:28:31.030 ,1,0,0.,12.0,0.,12.0,0.,12.0,0.,12.0
1986-01-24 00:28:43.030 ,1,0,0.,12.0,0.,12.0,0.,12.0,0.,12.0
1986-01-24 00:28:55.030 ,0,0,0.,12.0,0.,12.0,0.,12.0,0.,12.0
1986-01-24 00:29:07.030 ,0,0,0.,12.0,0.,12.0,0.,12.0,0.,12.0
1986-01-24 00:29:19.030 ,0,0,0.,12.0,0.,12.0,0.,12.0,0.,12.0
1986-01-24 00:29:31.030 ,0,0,0.,12.0,0.,12.0,0.,12.0,0.,12.0
1986-01-24 00:29:43.030 ,0,0,0.,12.0,1.,12.0,0.,12.0,0.,12.0
1986-01-24 00:29:55.030 ,0,0,0.,12.0,0.,12.0,0.,12.0,0.,12.0
1986-01-24 00:30:07.030 ,0,0,0.,12.0,0.,12.0,0.,12.0,0.,12.0
1986-01-24 00:30:19.030 ,0,0,0.,12.0,0.,12.0,0.,12.0,0.,12.0
1986-01-24 00:30:31.030 ,1,0,0.,12.0,0.,12.0,0.,12.0,0.,12.0
1986-01-24 00:30:43.030 ,1,0,0.,12.0,1.,12.0,0.,12.0,0.,12.0
1986-01-24 00:30:55.030 ,1,0,0.,12.0,0.,12.0,0.,12.0,0.,12.0
1986-01-24 00:31:07.030 ,1,0,0.,12.0,0.,12.0,0.,12.0,0.,12.0
1986-01-24 00:31:19.030 ,2,0,0.,12.0,0.,12.0,0.,12.0,0.,12.0
1986-01-24 00:31:31.030 ,2,0,0.,12.0,0.,12.0,0.,12.0,0.,12.0
1986-01-24 00:31:43.030 ,2,0,0.,12.0,0.,12.0,0.,12.0,0.,12.0
1986-01-24 00:31:55.030 ,2,0,0.,12.0,0.,12.0,0.,12.0,0.,12.0
1986-01-24 00:32:07.030 ,3,0,0.,12.0,0.,12.0,0.,12.0,0.,12.0
1986-01-24 00:32:19.030 ,3,0,0.,12.0,0.,12.0,0.,12.0,0.,12.0
1986-01-24 00:32:31.030 ,3,0,0.,12.0,0.,12.0,0.,12.0,0.,12.0
1986-01-24 00:32:43.030 ,3,0,0.,12.0,0.,12.0,0.,12.0,0.,12.0
1986-01-24 00:32:55.030 ,4,0,0.,12.0,0.,12.0,0.,12.0,0.,12.0
1986-01-24 00:33:07.030 ,4,0,0.,12.0,0.,12.0,0.,12.0,0.,12.0
1986-01-24 00:33:19.030 ,4,0,0.,12.0,0.,12.0,0.,12.0,0.,12.0
1986-01-24 00:33:31.030 ,4,0,0.,12.0,0.,12.0,0.,12.0,0.,12.0
1986-01-24 00:33:43.030 ,5,0,0.,12.0,0.,12.0,0.,12.0,0.,12.0
1986-01-24 00:33:55.030 ,5,0,0.,12.0,0.,12.0,0.,12.0,0.,12.0
1986-01-24 00:34:07.030 ,5,0,0.,12.0,0.,12.0,0.,12.0,0.,12.0
1986-01-24 00:34:19.030 ,5,0,0.,12.0,0.,12.0,0.,12.0,0.,12.0
1986-01-24 00:34:31.030 ,6,0,0.,12.0,0.,12.0,0.,12.0,0.,12.0
1986-01-24 00:34:43.030 ,6,0,0.,12.0,0.,12.0,0.,12.0,0.,12.0
1986-01-24 00:34:55.030 ,6,0,0.,12.0,0.,12.0,0.,12.0,0.,12.0
1986-01-24 00:35:07.030 ,6,0,0.,12.0,0.,12.0,0.,12.0,0.,12.0
1986-01-24 00:35:19.030 ,7,0,0.,12.0,0.,12.0,0.,12.0,0.,12.0
1986-01-24 00:35:31.030 ,7,0,0.,12.0,0.,12.0,0.,12.0,0.,12.0
1986-01-24 00:35:43.030 ,7,0,0.,12.0,0.,12.0,0.,12.0,0.,12.0
1986-01-24 00:35:55.030 ,7,0,0.,12.0,0.,12.0,0.,12.0,0.,12.0
1986-01-24 00:36:07.030 ,7,0,0.,12.0,0.,12.0,0.,12.0,0.,12.0
1986-01-24 00:36:19.030 ,7,0,0.,12.0,0.,12.0,0.,12.0,0.,12.0
1986-01-24 00:36:31.030 ,7,0,0.,12.0,0.,12.0,0.,12.0,0.,12.0
1986-01-24 00:36:43.030 ,7,0,0.,12.0,0.,12.0,0.,12.0,0.,12.0
1986-01-24 00:36:55.030 ,6,0,0.,12.0,0.,12.0,0.,12.0,0.,12.0
1986-01-24 00:37:07.030 ,6,0,0.,12.0,0.,12.0,0.,12.0,0.,12.0
1986-01-24 00:37:19.030 ,6,0,0.,12.0,0.,12.0,0.,12.0,0.,12.0
1986-01-24 00:37:31.030 ,6,0,0.,12.0,0.,12.0,0.,12.0,0.,12.0
1986-01-24 00:37:43.030 ,5,0,0.,12.0,0.,12.0,0.,12.0,0.,12.0
1986-01-24 00:37:55.030 ,5,0,0.,12.0,0.,12.0,0.,12.0,0.,12.0
1986-01-24 00:38:07.030 ,5,0,0.,12.0,0.,12.0,0.,12.0,0.,12.0
1986-01-24 00:38:19.030 ,5,0,0.,12.0,0.,12.0,0.,12.0,0.,12.0
1986-01-24 00:38:31.030 ,4,0,0.,12.0,0.,12.0,0.,12.0,0.,12.0
1986-01-24 00:38:43.030 ,4,0,0.,12.0,0.,12.0,0.,12.0,0.,12.0
1986-01-24 00:38:55.030 ,4,0,0.,12.0,0.,12.0,0.,12.0,0.,12.0
1986-01-24 00:39:07.030 ,4,0,0.,12.0,0.,12.0,0.,12.0,0.,12.0
1986-01-24 00:41:34.630 ,2,0,,0,,0,,0,,0
1986-01-24 00:41:46.630 ,2,0,,0,,0,,0,,0
1986-01-24 00:41:46.030 ,1,0,0.,12.0,0.,12.0,0.,12.0,0.,12.0
1986-01-24 00:41:58.030 ,1,0,0.,12.0,0.,12.0,0.,12.0,0.,12.0
1986-01-24 00:42:07.030 ,1,0,0.,12.0,0.,12.0,0.,12.0,0.,12.0
1986-01-24 00:42:19.030 ,1,0,0.,12.0,1.,12.0,0.,12.0,0.,12.0
1986-01-24 00:42:31.030 ,0,0,0.,12.0,0.,12.0,0.,12.0,0.,12.0
1986-01-24 00:42:43.030 ,0,0,0.,12.0,0.,12.0,0.,12.0,0.,12.0
1986-01-24 00:42:55.030 ,0,0,0.,12.0,0.,12.0,0.,12.0,0.,12.0
1986-01-24 00:43:07.030 ,0,0,0.,12.0,0.,12.0,0.,12.0,0.,12.0
1986-01-24 00:43:19.030 ,1,0,0.,12.0,0.,12.0,0.,12.0,0.,12.0
1986-01-24 00:43:31.030 ,1,0,0.,12.0,0.,12.0,0.,12.0,0.,12.0
1986-01-24 00:43:43.030 ,1,0,0.,12.0,0.,12.0,0.,12.0,0.,12.0
1986-01-24 00:43:55.030 ,1,0,0.,12.0,0.,12.0,0.,12.0,0.,12.0
1986-01-24 00:44:07.030 ,2,0,0.,12.0,0.,12.0,0.,12.0,0.,12.0
1986-01-24 00:44:19.030 ,2,0,0.,12.0,0.,12.0,0.,12.0,0.,12.0
1986-01-24 00:44:31.030 ,2,0,0.,12.0,0.,12.0,0.,12.0,0.,12.0
1986-01-24 00:44:43.030 ,2,0,0.,12.0,0.,12.0,0.,12.0,0.,12.0
1986-01-24 00:44:55.030 ,3,0,0.,12.0,1.,12.0,0.,12.0,0.,12.0
1986-01-24 00:45:07.030 ,3,0,0.,12.0,0.,12.0,0.,12.0,0.,12.0
1986-01-24 00:45:19.030 ,3,0,0.,12.0,0.,12.0,0.,12.0,0.,12.0
1986-01-24 00:45:31.030 ,3,0,0.,12.0,0.,12.0,0.,12.0,0.,12.0
1986-01-24 00:45:43.030 ,4,0,0.,12.0,0.,12.0,0.,12.0,0.,12.0
1986-01-24 00:45:55.030 ,4,0,0.,12.0,0.,12.0,0.,12.0,0.,12.0
1986-01-24 00:46:07.030 ,4,0,0.,12.0,0.,12.0,0.,12.0,0.,12.0
1986-01-24 00:46:19.030 ,4,0,0.,12.0,0.,12.0,0.,12.0,0.,12.0
1986-01-24 00:46:31.030 ,5,0,0.,12.0,0.,12.0,0.,12.0,0.,12.0
1986-01-24 00:46:43.030 ,5,0,0.,12.0,0.,12.0,0.,12.0,0.,12.0
1986-01-24 00:46:55.030 ,5,0,0.,12.0,0.,12.0,0.,12.0,0.,12.0
1986-01-24 00:47:07.030 ,5,0,0.,12.0,0.,12.0,0.,12.0,0.,12.0
1986-01-24 00:47:19.030 ,6,0,0.,12.0,0.,12.0,0.,12.0,0.,12.0
1986-01-24 00:47:31.030 ,6,0,0.,12.0,0.,12.0,0.,12.0,0.,12.0
1986-01-24 00:47:43.030 ,6,0,0.,12.0,0.,12.0,0.,12.0,0.,12.0
1986-01-24 00:47:55.030 ,6,0,0.,12.0,0.,12.0,0.,12.0,0.,12.0
1986-01-24 00:48:07.030 ,7,0,0.,12.0,0.,12.0,0.,12.0,0.,12.0
1986-01-24 00:48:19.030 ,7,0,0.,12.0,0.,12.0,0.,12.0,0.,12.0
1986-01-24 00:48:31.030 ,7,0,0.,12.0,0.,12.0,0.,12.0,0.,12.0
1986-01-24 00:48:43.030 ,7,0,0.,12.0,0.,12.0,0.,12.0,0.,12.0
1986-01-24 00:48:55.030 ,7,0,0.,12.0,0.,12.0,0.,12.0,0.,12.0
1986-01-24 00:49:07.030 ,7,0,0.,12.0,0.,12.0,0.,12.0,0.,12.0
1986-01-24 00:49:19.030 ,7,0,0.,12.0,0.,12.0,0.,12.0,0.,12.0
1986-01-24 00:49:31.030 ,7,0,0.,12.0,0.,12.0,0.,12.0,0.,12.0
1986-01-24 00:49:43.030 ,6,0,0.,12.0,0.,12.0,0.,12.0,0.,12.0
1986-01-24 00:49:55.030 ,6,0,0.,12.0,0.,12.0,0.,12.0,0.,12.0
1986-01-24 00:50:07.030 ,6,0,0.,12.0,0.,12.0,0.,12.0,0.,12.0
1986-01-24 00:50:19.030 ,6,0,0.,12.0,0.,12.0,0.,12.0,0.,12.0
1986-01-24 00:50:31.030 ,5,0,0.,12.0,0.,12.0,0.,12.0,0.,12.0
1986-01-24 00:50:43.030 ,5,0,0.,12.0,0.,12.0,0.,12.0,0.,12.0
1986-01-24 00:50:55.030 ,5,0,0.,12.0,0.,12.0,0.,12.0,0.,12.0
1986-01-24 00:51:07.030 ,5,0,0.,12.0,0.,12.0,0.,12.0,0.,12.0
1986-01-24 00:51:19.030 ,4,0,0.,12.0,0.,12.0,0.,12.0,0.,12.0
1986-01-24 00:51:31.030 ,4,0,0.,12.0,0.,12.0,0.,12.0,0.,12.0
1986-01-24 00:51:43.030 ,4,0,0.,12.0,0.,12.0,0.,12.0,0.,12.0
1986-01-24 00:51:55.030 ,4,0,0.,12.0,0.,12.0,0.,12.0,0.,12.0
1986-01-24 00:52:07.030 ,3,0,0.,12.0,0.,12.0,0.,12.0,0.,12.0
1986-01-24 00:52:19.030 ,3,0,0.,12.0,0.,12.0,0.,12.0,0.,12.0
1986-01-24 00:52:31.030 ,3,0,0.,12.0,0.,12.0,0.,12.0,0.,12.0
1986-01-24 00:52:43.030 ,3,0,0.,12.0,0.,12.0,0.,12.0,0.,12.0
1986-01-24 00:52:55.030 ,2,0,0.,12.0,0.,12.0,0.,12.0,0.,12.0
1986-01-24 00:53:07.030 ,2,0,0.,12.0,0.,12.0,0.,12.0,0.,12.0
1986-01-24 00:53:19.030 ,2,0,0.,12.0,0.,12.0,0.,12.0,0.,12.0
1986-01-24 00:53:31.030 ,2,0,0.,12.0,0.,12.0,0.,12.0,0.,12.0
1986-01-24 00:53:43.030 ,1,0,0.,12.0,0.,12.0,0.,12.0,0.,12.0
1986-01-24 00:53:55.030 ,1,0,0.,12.0,0.,12.0,0.,12.0,0.,12.0
1986-01-24 00:54:07.030 ,1,0,0.,12.0,0.,12.0,0.,12.0,0.,12.0
1986-01-24 00:54:19.030 ,1,0,0.,12.0,0.,12.0,0.,12.0,0.,12.0
1986-01-24 00:54:31.030 ,0,0,0.,12.0,0.,12.0,0.,12.0,0.,12.0
1986-01-24 00:54:43.030 ,0,0,0.,12.0,0.,12.0,0.,12.0,0.,12.0
1986-01-24 00:54:55.030 ,0,0,0.,12.0,0.,12.0,0.,12.0,0.,12.0
1986-01-24 00:55:07.030 ,0,0,0.,12.0,0.,12.0,0.,12.0,0.,12.0
1986-01-24 00:55:19.030 ,0,0,0.,12.0,0.,12.0,0.,12.0,0.,12.0
1986-01-24 00:55:31.030 ,0,0,0.,12.0,0.,12.0,0.,12.0,0.,12.0
1986-01-24 00:55:43.030 ,0,0,0.,12.0,0.,12.0,0.,12.0,0.,12.0
1986-01-24 00:55:55.030 ,0,0,0.,12.0,0.,12.0,0.,12.0,0.,12.0
1986-01-24 00:56:07.030 ,1,0,0.,12.0,0.,12.0,0.,12.0,0.,12.0
1986-01-24 00:56:19.030 ,1,0,0.,12.0,0.,12.0,0.,12.0,0.,12.0
1986-01-24 00:56:31.030 ,1,0,0.,12.0,1.,12.0,0.,12.0,0.,12.0
1986-01-24 00:56:43.030 ,1,0,0.,12.0,0.,12.0,0.,12.0,0.,12.0
1986-01-24 00:56:55.030 ,2,0,0.,12.0,0.,12.0,0.,12.0,0.,12.0
1986-01-24 00:57:07.030 ,2,0,0.,12.0,0.,12.0,0.,12.0,0.,12.0
1986-01-24 00:57:19.030 ,2,0,0.,12.0,0.,12.0,0.,12.0,0.,12.0
1986-01-24 00:57:31.030 ,2,0,0.,12.0,0.,12.0,0.,12.0,0.,12.0
1986-01-24 00:57:43.030 ,3,0,0.,12.0,0.,12.0,0.,12.0,0.,12.0
1986-01-24 00:57:55.030 ,3,0,0.,12.0,0.,12.0,0.,12.0,0.,12.0
1986-01-24 00:58:07.030 ,3,0,0.,12.0,0.,12.0,0.,12.0,0.,12.0
1986-01-24 00:58:19.030 ,3,0,0.,12.0,0.,12.0,0.,12.0,0.,12.0
1986-01-24 00:58:31.030 ,4,0,0.,12.0,0.,12.0,0.,12.0,0.,12.0
1986-01-24 00:58:43.030 ,4,0,0.,12.0,0.,12.0,0.,12.0,0.,12.0
1986-01-24 00:58:55.030 ,4,0,0.,12.0,0.,12.0,0.,12.0,0.,12.0
1986-01-24 00:59:07.030 ,4,0,0.,12.0,0.,12.0,0.,12.0,0.,12.0
1986-01-24 00:59:19.030 ,5,0,0.,12.0,0.,12.0,0.,12.0,0.,12.0
1986-01-24 00:59:31.030 ,5,0,0.,12.0,0.,12.0,0.,12.0,0.,12.0
1986-01-24 00:59:43.030 ,5,0,0.,12.0,0.,12.0,0.,12.0,0.,12.0
1986-01-24 00:59:55.030 ,5,0,0.,12.0,0.,12.0,0.,12.0,0.,12.0
1986-01-24 01:00:07.030 ,6,0,0.,12.0,0.,12.0,0.,12.0,0.,12.0
1986-01-24 01:00:19.030 ,6,0,0.,12.0,0.,12.0,0.,12.0,0.,12.0
1986-01-24 01:00:31.030 ,6,0,0.,12.0,0.,12.0,0.,12.0,0.,12.0
1986-01-24 01:00:43.030 ,6,0,0.,12.0,0.,12.0,0.,12.0,0.,12.0
1986-01-24 01:00:55.030 ,7,0,0.,12.0,0.,12.0,0.,12.0,0.,12.0
1986-01-24 01:01:07.030 ,7,0,0.,12.0,0.,12.0,0.,12.0,0.,12.0
1986-01-24 01:01:19.030 ,7,0,0.,12.0,0.,12.0,0.,12.0,0.,12.0
1986-01-24 01:01:31.030 ,7,0,0.,12.0,0.,12.0,0.,12.0,0.,12.0
1986-01-24 01:01:43.030 ,7,0,0.,12.0,0.,12.0,0.,12.0,0.,12.0
1986-01-24 01:01:55.030 ,7,0,0.,12.0,0.,12.0,0.,12.0,0.,12.0
1986-01-24 01:02:07.030 ,7,0,0.,12.0,0.,12.0,0.,12.0,0.,12.0
1986-01-24 01:02:19.030 ,7,0,0.,12.0,0.,12.0,0.,12.0,0.,12.0
1986-01-24 01:02:31.030 ,6,0,0.,12.0,0.,12.0,0.,12.0,0.,12.0
1986-01-24 01:02:43.030 ,6,0,0.,12.0,0.,12.0,0.,12.0,0.,12.0
1986-01-24 01:02:55.030 ,6,0,0.,12.0,0.,12.0,0.,12.0,0.,12.0
1986-01-24 01:03:07.030 ,6,0,0.,12.0,0.,12.0,0.,12.0,0.,12.0
1986-01-24 01:03:19.030 ,5,0,0.,12.0,0.,12.0,0.,12.0,0.,12.0
1986-01-24 01:03:31.030 ,5,0,0.,12.0,0.,12.0,0.,12.0,0.,12.0
1986-01-24 01:03:43.030 ,5,0,0.,12.0,0.,12.0,0.,12.0,0.,12.0
1986-01-24 01:03:55.030 ,5,0,0.,12.0,0.,12.0,0.,12.0,0.,12.0
1986-01-24 01:04:07.030 ,4,0,0.,12.0,0.,12.0,0.,12.0,0.,12.0
1986-01-24 01:04:19.030 ,4,0,0.,12.0,0.,12.0,0.,12.0,0.,12.0
1986-01-24 01:04:31.030 ,4,0,0.,12.0,0.,12.0,0.,12.0,0.,12.0
1986-01-24 01:04:43.030 ,4,0,0.,12.0,0.,12.0,0.,12.0,0.,12.0
1986-01-24 01:04:55.030 ,3,0,0.,12.0,0.,12.0,0.,12.0,0.,12.0
1986-01-24 01:05:07.030 ,3,0,0.,12.0,0.,12.0,0.,12.0,0.,12.0
1986-01-24 01:05:19.030 ,3,0,0.,12.0,0.,12.0,0.,12.0,0.,12.0
1986-01-24 01:05:31.030 ,3,0,0.,12.0,0.,12.0,0.,12.0,0.,12.0
1986-01-24 01:05:43.030 ,2,0,0.,12.0,0.,12.0,0.,12.0,0.,12.0
1986-01-24 01:05:55.030 ,2,0,0.,12.0,0.,12.0,0.,12.0,0.,12.0
1986-01-24 01:06:07.030 ,2,0,0.,12.0,0.,12.0,0.,12.0,0.,12.0
1986-01-24 01:06:19.030 ,2,0,0.,12.0,0.,12.0,0.,12.0,0.,12.0
1986-01-24 01:06:31.030 ,1,0,0.,12.0,0.,12.0,0.,12.0,0.,12.0
1986-01-24 01:06:43.030 ,1,0,0.,12.0,0.,12.0,0.,12.0,0.,12.0
1986-01-24 01:06:55.030 ,1,0,0.,12.0,0.,12.0,0.,12.0,0.,12.0
1986-01-24 01:07:07.030 ,1,0,0.,12.0,0.,12.0,0.,12.0,0.,12.0
1986-01-24 01:07:19.030 ,0,0,0.,12.0,0.,12.0,0.,12.0,0.,12.0
1986-01-24 01:07:31.030 ,0,0,0.,12.0,0.,12.0,0.,12.0,0.,12.0
1986-01-24 01:07:43.030 ,0,0,0.,12.0,0.,12.0,0.,12.0,0.,12.0
1986-01-24 01:07:55.030 ,0,0,0.,12.0,0.,12.0,0.,12.0,0.,12.0
1986-01-24 01:08:07.030 ,0,0,0.,12.0,0.,12.0,0.,12.0,0.,12.0
1986-01-24 01:08:19.030 ,0,0,0.,12.0,0.,12.0,0.,12.0,0.,12.0
1986-01-24 01:08:31.030 ,0,0,0.,12.0,0.,12.0,0.,12.0,0.,12.0
1986-01-24 01:08:43.030 ,0,0,0.,12.0,0.,12.0,0.,12.0,0.,12.0
1986-01-24 01:08:55.030 ,1,0,0.,12.0,0.,12.0,0.,12.0,0.,12.0
1986-01-24 01:09:07.030 ,1,0,0.,12.0,0.,12.0,0.,12.0,0.,12.0
1986-01-24 01:09:19.030 ,1,0,0.,12.0,0.,12.0,0.,12.0,0.,12.0
1986-01-24 01:09:31.030 ,1,0,0.,12.0,0.,12.0,0.,12.0,0.,12.0
1986-01-24 01:09:43.030 ,2,0,0.,12.0,0.,12.0,0.,12.0,0.,12.0
1986-01-24 01:09:55.030 ,2,0,0.,12.0,0.,12.0,0.,12.0,0.,12.0
1986-01-24 01:10:07.030 ,2,0,0.,12.0,0.,12.0,0.,12.0,0.,12.0
1986-01-24 01:10:19.030 ,2,0,0.,12.0,0.,12.0,0.,12.0,0.,12.0
1986-01-24 01:10:31.030 ,3,0,0.,12.0,0.,12.0,0.,12.0,0.,12.0
1986-01-24 01:10:43.030 ,3,0,0.,12.0,0.,12.0,0.,12.0,0.,12.0
1986-01-24 01:10:55.030 ,3,0,0.,12.0,0.,12.0,0.,12.0,0.,12.0
1986-01-24 01:11:07.030 ,3,0,0.,12.0,0.,12.0,0.,12.0,0.,12.0
1986-01-24 01:11:19.030 ,4,0,0.,12.0,0.,12.0,0.,12.0,0.,12.0
1986-01-24 01:11:31.030 ,4,0,0.,12.0,0.,12.0,0.,12.0,0.,12.0
1986-01-24 01:11:43.030 ,4,0,0.,12.0,0.,12.0,0.,12.0,0.,12.0
1986-01-24 01:11:55.030 ,4,0,0.,12.0,0.,12.0,0.,12.0,0.,12.0
1986-01-24 01:12:07.030 ,5,0,0.,12.0,0.,12.0,0.,12.0,0.,12.0
1986-01-24 01:12:19.030 ,5,0,0.,12.0,0.,12.0,0.,12.0,0.,12.0
1986-01-24 01:12:31.030 ,5,0,0.,12.0,0.,12.0,0.,12.0,0.,12.0
1986-01-24 01:12:43.030 ,5,0,0.,12.0,0.,12.0,0.,12.0,0.,12.0
1986-01-24 01:12:55.030 ,6,0,0.,12.0,0.,12.0,0.,12.0,0.,12.0
1986-01-24 01:13:07.030 ,6,0,0.,12.0,0.,12.0,0.,12.0,0.,12.0
1986-01-24 01:13:19.030 ,6,0,0.,12.0,0.,12.0,0.,12.0,0.,12.0
1986-01-24 01:13:31.030 ,6,0,0.,12.0,0.,12.0,0.,12.0,0.,12.0
1986-01-24 01:13:43.030 ,7,0,0.,12.0,0.,12.0,0.,12.0,0.,12.0
1986-01-24 01:13:55.030 ,7,0,0.,12.0,0.,12.0,0.,12.0,0.,12.0
1986-01-24 01:14:07.030 ,7,0,0.,12.0,0.,12.0,0.,12.0,0.,12.0
1986-01-24 01:14:19.030 ,7,0,0.,12.0,0.,12.0,0.,12.0,0.,12.0
1986-01-24 01:14:31.030 ,7,0,0.,12.0,0.,12.0,0.,12.0,0.,12.0
1986-01-24 01:14:43.030 ,7,0,0.,12.0,0.,12.0,0.,12.0,0.,12.0
1986-01-24 01:14:55.030 ,7,0,0.,12.0,0.,12.0,0.,12.0,0.,12.0
1986-01-24 01:15:07.030 ,7,0,0.,12.0,0.,12.0,0.,12.0,0.,12.0
1986-01-24 01:15:19.030 ,6,0,0.,12.0,0.,12.0,0.,12.0,0.,12.0
1986-01-24 01:15:31.030 ,6,0,0.,12.0,0.,12.0,0.,12.0,0.,12.0
1986-01-24 01:15:43.030 ,6,0,0.,12.0,0.,12.0,0.,12.0,0.,12.0
1986-01-24 01:15:55.030 ,6,0,0.,12.0,0.,12.0,0.,12.0,0.,12.0
1986-01-24 01:16:07.030 ,5,0,0.,12.0,0.,12.0,0.,12.0,0.,12.0
1986-01-24 01:16:19.030 ,5,0,0.,12.0,0.,12.0,0.,12.0,0.,12.0
1986-01-24 01:16:31.030 ,5,0,0.,12.0,0.,12.0,0.,12.0,0.,12.0
1986-01-24 01:16:43.030 ,5,0,0.,12.0,0.,12.0,0.,12.0,0.,12.0
1986-01-24 01:16:55.030 ,4,0,0.,12.0,0.,12.0,0.,12.0,0.,12.0
1986-01-24 01:17:07.030 ,4,0,0.,12.0,0.,12.0,0.,12.0,0.,12.0
1986-01-24 01:17:19.030 ,4,0,0.,12.0,0.,12.0,0.,12.0,0.,12.0
1986-01-24 01:17:31.030 ,4,0,0.,12.0,0.,12.0,0.,12.0,0.,12.0
1986-01-24 01:20:57.430 ,0,0,0.,12.0,0.,12.0,0.,12.0,0.,12.0
1986-01-24 01:21:09.430 ,0,0,0.,12.0,0.,12.0,0.,12.0,0.,12.0
1986-01-24 01:21:28.630 ,0,0,,0,,0,,0,,0
1986-01-24 01:21:40.630 ,0,0,0.,12.0,0.,12.0,0.,12.0,0.,12.0
1986-01-24 01:21:43.030 ,1,0,0.,12.0,0.,12.0,0.,12.0,0.,12.0
1986-01-24 01:21:55.030 ,1,0,0.,12.0,0.,12.0,0.,12.0,0.,12.0
1986-01-24 01:22:07.030 ,1,0,0.,12.0,0.,12.0,0.,12.0,0.,12.0
1986-01-24 01:22:19.030 ,1,0,0.,12.0,0.,12.0,0.,12.0,0.,12.0
1986-01-24 01:22:31.030 ,2,0,0.,12.0,0.,12.0,0.,12.0,0.,12.0